Location: Carnières
(50.1682°N, 3.3474°E)
Time: 20:46:16
(UTC+00:00)

SL-16 R/B - Pass Details

Date: 08 August 2024
Orbit: 842 x 845 km, 71.0° (Epoch: 10 September)

Event Time Altitude Azimuth Distance (km) Brightness Sun altitude
Exits shadow 23:29:21 30° 109° (ESE) 1,466 3.2 -23.9°
Maximum altitude 23:29:32 30° 105° (ESE) 1,464 3.2 -23.9°
Drops below altitude 10° 23:34:24 10° 46° (NE) 2,474 5.1 -23.9°
Sets 23:37:06 0° 36° (NE) 3,414 6.1 -24.0°
